Location: Prairie State College
(41.5244°N, 87.6382°W)
Time: 18:54:24
(UTC-05:00)

Cosmos 1140 Rocket - Visible Passes

Search period start: 24 March 2017 00:00
Search period end: 03 April 2017 00:00
Orbit: 744 x 768 km, 74.1° (Epoch: 23 March)

Date Brightness Start Highest point End Pass type
(mag) Time Alt. Az. Time Alt. Az. Time Alt. Az.
24 Mar 6.5 23:45:44 10° N 23:45:52 11° N 23:45:52 11° N visible
25 Mar 6.3 23:05:47 10° N 23:06:05 11° N 23:06:05 11° N visible
27 Mar 6.5 00:06:06 10° NNW 00:06:21 11° NNW 00:06:21 11° NNW visible
27 Mar 6.1 23:25:43 10° N 23:26:36 15° N 23:26:36 15° N visible
28 Mar 5.9 22:45:35 10° N 22:46:52 16° NNE 22:46:52 16° NNE visible
29 Mar 5.8 22:05:55 10° NNE 22:07:08 13° NNE 22:07:08 13° NNE visible
29 Mar 6.2 23:46:16 10° NNW 23:47:10 15° NNW 23:47:10 15° NNW visible
30 Mar 5.7 23:05:45 10° NNW 23:07:28 21° N 23:07:28 21° N visible
31 Mar 5.4 22:25:29 10° N 22:27:47 23° NNE 22:27:47 23° NNE visible
01 Apr 6.4 00:07:28 10° NW 00:07:48 11° NW 00:07:48 11° NW visible
01 Apr 5.4 21:45:34 10° N 21:48:07 19° NE 21:48:07 19° NE visible
01 Apr 5.8 23:26:29 10° NNW 23:28:09 20° NW 23:28:09 20° NW visible
02 Apr 5.6 21:06:27 10° NNE 21:08:27 12° NE 21:08:30 12° NE visible
02 Apr 5.1 22:45:50 10° NNW 22:48:31 31° NNW 22:48:31 31° NNW visible
